TimeCDT,TemperatureF,Dew PointF,Humidity,Sea Level PressureIn,VisibilityMPH,Wind Direction,Wind SpeedMPH,Gust SpeedMPH,PrecipitationIn,Events,Conditions,WindDirDegrees,DateUTC
12:52 AM,60.1,55.9,86,30.08,10.0,Calm,Calm,-,N/A,,Clear,0,2013-07-01 05:52:00
1:52 AM,61.0,55.0,81,30.09,10.0,Calm,Calm,-,N/A,,Clear,0,2013-07-01 06:52:00
2:52 AM,59.0,54.0,83,30.09,8.0,Calm,Calm,-,N/A,,Clear,0,2013-07-01 07:52:00
3:52 AM,55.9,52.0,87,30.10,6.0,Calm,Calm,-,N/A,,Clear,0,2013-07-01 08:52:00
4:52 AM,54.0,51.1,90,30.11,6.0,Calm,Calm,-,N/A,,Overcast,0,2013-07-01 09:52:00
5:52 AM,53.1,51.1,93,30.12,6.0,Calm,Calm,-,N/A,,Clear,0,2013-07-01 10:52:00
6:52 AM,55.0,52.0,89,30.14,4.0,Calm,Calm,-,N/A,,Clear,0,2013-07-01 11:52:00
7:52 AM,60.1,55.0,83,30.14,5.0,Calm,Calm,-,N/A,,Haze,0,2013-07-01 12:52:00
8:52 AM,66.0,55.9,70,30.16,5.0,NE,4.6,-,N/A,,Haze,40,2013-07-01 13:52:00
9:52 AM,72.0,55.9,57,30.16,7.0,NE,6.9,-,N/A,,Clear,50,2013-07-01 14:52:00
10:52 AM,75.0,55.0,50,30.16,8.0,NNE,9.2,-,N/A,,Clear,30,2013-07-01 15:52:00
11:52 AM,77.0,55.9,48,30.16,9.0,North,10.4,18.4,N/A,,Scattered Clouds,10,2013-07-01 16:52:00
12:52 PM,78.1,54.0,43,30.15,10.0,NNE,11.5,17.3,N/A,,Partly Cloudy,30,2013-07-01 17:52:00
1:52 PM,80.1,53.1,39,30.13,10.0,NE,13.8,18.4,N/A,,Partly Cloudy,40,2013-07-01 18:52:00
2:52 PM,80.1,52.0,38,30.12,10.0,NNE,11.5,19.6,N/A,,Partly Cloudy,20,2013-07-01 19:52:00
3:52 PM,81.0,51.1,35,30.12,10.0,NE,13.8,-,N/A,,Clear,50,2013-07-01 20:52:00
4:52 PM,81.0,48.0,31,30.10,10.0,NNE,8.1,-,N/A,,Clear,20,2013-07-01 21:52:00
5:52 PM,80.1,50.0,35,30.10,10.0,NE,10.4,-,N/A,,Clear,40,2013-07-01 22:52:00
6:52 PM,79.0,51.1,38,30.09,10.0,NE,10.4,-,N/A,,Clear,40,2013-07-01 23:52:00
7:52 PM,78.1,52.0,40,30.10,10.0,North,3.5,-,N/A,,Clear,350,2013-07-02 00:52:00
8:52 PM,73.0,55.0,53,30.09,10.0,NNW,3.5,-,N/A,,Clear,340,2013-07-02 01:52:00
9:52 PM,68.0,55.0,63,30.10,10.0,Calm,Calm,-,N/A,,Clear,0,2013-07-02 02:52:00
10:52 PM,61.0,55.9,83,30.11,10.0,Calm,Calm,-,N/A,,Clear,0,2013-07-02 03:52:00
11:52 PM,61.0,55.9,83,30.11,10.0,Calm,Calm,-,N/A,,Clear,0,2013-07-02 04:52:00